Location: Nairn
(57.5833°N, 3.8667°W)
Time: 03:18:59
(UTC+00:00)

NPP - Visible Passes

Search period start: 25 November 2020 00:00
Search period end: 05 December 2020 00:00
Orbit: 826 x 828 km, 98.7° (Epoch: 24 November)

Date Brightness Start Highest point End Pass type
(mag) Time Alt. Az. Time Alt. Az. Time Alt. Az.
25 Nov 6.4 02:45:44 10° NNE 02:45:51 11° NNE 02:45:51 11° NNE visible
25 Nov 5.9 04:26:42 10° N 04:27:21 12° N 04:27:21 12° N visible
26 Nov 6.0 04:07:40 10° N 04:08:14 12° N 04:08:14 12° N visible
27 Nov 6.1 03:48:42 10° N 03:49:08 12° N 03:49:08 12° N visible
28 Nov 6.2 03:29:45 10° N 03:30:01 11° N 03:30:01 11° N visible
28 Nov 5.9 05:11:17 10° N 05:11:31 11° NNW 05:11:31 11° NNW visible
29 Nov 6.4 03:10:50 10° N 03:10:55 10° N 03:10:55 10° N visible
29 Nov 6.0 04:52:04 10° N 04:52:25 11° N 04:52:25 11° N visible
30 Nov 6.0 04:32:58 10° N 04:33:19 11° N 04:33:19 11° N visible
01 Dec 6.1 04:13:56 10° N 04:14:13 11° N 04:14:13 11° N visible
02 Dec 6.2 03:54:56 10° N 03:55:07 11° N 03:55:07 11° N visible
03 Dec 6.3 03:36:00 10° N 03:36:01 10° N 03:36:01 10° N visible
04 Dec 6.0 04:58:23 10° N 04:58:25 10° N 04:58:25 10° N visible
